Tracking 29892 objects as of 21-Nov-2024
HD Live streaming from Space Station
objects crossing your sky now

NOAA 16 DEB

Track NOAA 16 DEB now!
10-day predictions


NORAD ID: 41347
Int'l Code: 2000-055HQ
Perigee: 796.2 km
Apogee: 827.3 km
Inclination: 98.7 °
Period: 101.0 minutes
Semi major axis: 7182 km
RCS: Unknown
Launch date: September 21, 2000
Source: United States (US)
Launch site: AIR FORCE WESTERN TEST RANGE (AFWTR)

Note: This is SATELLITE DEBRIS
Your satellite tracking list
Your tracking list is empty




NASA's NSSDC Master Catalog

Two Line Element Set (TLE):
1 41347U 00055HQ  24325.42840070  .00009023  00000-0  37749-2 0  9996
2 41347  98.7323  30.2626 0021678 236.3219 123.5894 14.26155607455151
Source of the keplerian elements: AFSPC